Hourly Data Report for July 05, 2022

RANKIN INLET A
NUNAVUT
Current Station Operator: NAVCAN

62°48'38.000" N
92°06'53.000" W
32.30 m
2303405
71083
YRT

Download Data

Hourly Data (July 2022)
Hourly Data Report for July 5, 2022
TIME
LST
Temp Definition
°C
Dew Point Definition
°C
Rel Hum Definition
%
Precip. Amount Definition
mm

Wind Dir Definition
10's deg

Wind Spd Definition
km/h
Visibility Definition
km
Stn Press Definition
kPa
Hmdx Definition


Wind Chill Definition


Weather Definition


00:00 10.6 7.2 79   32 26 24.1 101.01     Mostly Cloudy
01:00 9.9 7.2 83   32 25 24.1 101.01     LegendNANA
02:00 9.7 7.0 83   33 27 24.1 100.99     LegendNANA
03:00 9.4 6.9 84   33 24 24.1 100.97     Mainly Clear
04:00 9.4 6.7 83   34 27 24.1 100.97     LegendNANA
05:00 10.3 6.8 79   34 27 24.1 100.98     LegendNANA
06:00 11.9 6.3 68   35 24 24.1 101.00     Mainly Clear
07:00 13.0 5.3 59   34 29 24.1 101.00     LegendNANA
08:00 14.5 5.8 56   34 22 24.1 100.98     LegendNANA
09:00 14.7 4.7 51   33 29 24.1 100.97     Mostly Cloudy
10:00 14.3 4.8 52   35 29 24.1 100.95     LegendNANA
11:00 14.6 2.5 44   34 37 24.1 100.94     LegendNANA
12:00 15.3 5.7 53   34 35 24.1 100.90     Mostly Cloudy
13:00 16.1 3.3 42   33 40 24.1 100.89     LegendNANA
14:00 16.0 3.0 41   34 33 48.3 100.87     LegendNANA
15:00 15.9 3.4 43   35 36 24.1 100.85     Mostly Cloudy
16:00 15.9 2.4 40   36 39 24.1 100.86     LegendNANA
17:00 16.4 4.1 44   34 29 24.1 100.86     LegendNANA
18:00 16.5 2.6 39   33 35 24.1 100.84     Mainly Clear
19:00 16.1 2.5 40   35 30 24.1 100.83     LegendNANA
20:00 15.4 3.1 43   32 21 24.1 100.82     LegendNANA
21:00 13.6 3.3 50   32 21 24.1 100.79     Mainly Clear
22:00 11.2 5.3 67   35 12 24.1 100.81     LegendNANA
23:00 9.7 5.0 73   7 7 24.1 100.85     LegendNANA

Notes on Data Quality.

Legend

  • E = Estimated
  • M = Missing
  • NA = Not Available*
  • [empty] = Indicates an unobserved value
Date modified: